Starlink 34568

operational
NORAD ID: 64717 Int'l Des: 2025-142 Owner: SPXS Country: US Constellation: starlink
LEOCIRCULAR

About Starlink 34568

Description loading...

Live Position

Loading 3D Globe...

Upcoming Passes

Altitude History

Altitude vs Time

uPlot chart will show altitude changes over time

Two-Line Element Set

1 64717U 25142X 26061.17032125 -.00004370 00000-0 -35885-3 0 9993
2 64717 70.0020 333.4491 0002615 269.6230 90.4630 14.98317481 38363
Epoch: Mar 2, 2026 • Age: 24 hours

Current Status

Altitude 583.9 km
Velocity 7.57 km/s
Sub-Earth Point -35.62°S, 1.29°E
Launch Date Jun 28, 2025
Age 0.6 years
Type internet

Technical Details

Classification Payload
Mass 575.00 kg
Dry Mass 530.00 kg
Total Mass 575.00 kg
Length 0.30 m
Diameter 4.10 m
Span 29.00 m
Shape Box + pan
Manufacturer SPXS
Bus Type Starlink V2MO
Phase Status In Orbit
Owner/State SPXS/US

Large Constellations

Loading constellations...